Regional Weather Roundup
Issued by NWS

Home | Current Version | Previous Version | Text Only | Print | Product List | Glossary On
Versions: 1 2 3 4 5 6 7 8 9 10 11 12 13 14 15 16 17 18 19 20 21 22 23 24 25 26 27 28 29 30 31 32 33 34 35 36 37 38 39 40 41 42 43 44 45 46 47 48 49 50
000
ASUS43 KDTX 242101
RWRMI
MICHIGAN HOURLY REGIONAL WEATHER ROUNDUP
NATIONAL WEATHER SERVICE DETROIT/PONTIAC MI
400 PM EST TUE JAN 24 2017

NOTE: "FAIR" INDICATES FEW OR NO CLOUDS BELOW 12,000 FEET WITH NO
SIGNIFICANT WEATHER AND/OR OBSTRUCTION TO VISIBILITY.

MIZ047>049-052>055-059>063-066>070-074>076-081>083-242200-
SOUTHEAST LOWER MICHIGAN

CITY           SKY/WX    TMP DP  RH WIND       PRES   REMARKS
ADRIAN         CLOUDY    39  35  86 NW8       29.79R WCI  33
ALMA           CLOUDY    41  36  80 W9G20     29.78R
ANN ARBOR      CLOUDY    39  36  89 W10       29.76R WCI  32
BAD AXE        CLOUDY    37  37 100 NW8       29.73R WCI  30
CARO           LGT RAIN  38  37  95 W5        29.74R WCI  35
DETROIT CITY   CLOUDY    40  38  93 NW7       29.75R
DETROIT        CLOUDY    40  37  89 W12       29.76R WCI  33
FLINT          CLOUDY    38  35  89 W12       29.76R WCI  30
GROSSE ILE     CLOUDY    40  37  86 NW9       29.75R WCI  35
HILLSDALE      CLOUDY    36  34  93 W12       29.78R WCI  27
HOWELL         CLOUDY    37  34  90 NW10      29.78R WCI  29

CITY           SKY/WX    TMP DP  RH WIND       PRES   REMARKS
JACKSON        CLOUDY    38  34  85 NW10      29.79R WCI  31
LAMBERTVILLE   CLOUDY    42  36  79 NW7       29.78R
LANSING        CLOUDY    38  33  82 W7        29.79R WCI  33
LAPEER         CLOUDY    37  37  99 NW8       29.75R FOG     WCI  31
MASON          CLOUDY    37  35  92 NW12      29.79R WCI  29
MONROE         CLOUDY    40  38  94 NW10G16   29.77R FOG     WCI  34
MT. CLEMENS    CLOUDY    40  40 100 NW9       29.72R WCI  33
PONTIAC        CLOUDY    37  34  89 W14       29.73R WCI  28
PORT HOPE        N/A     35  34  96 NW8       29.71S WCI  29
PORT HURON     CLOUDY    39  37  93 NW8       29.73R WCI  34
TRI CITIES     CLOUDY    39  36  89 W7        29.76R WCI  34
MIDLAND        CLOUDY    40  35  81 NW5       29.75R
TROY           CLOUDY    40  36  86 W10G17    29.76R WCI  33
SAGINAW HB     CLOUDY    37  34  87 W7        29.75R WCI  32
$$
MIZ043>046-050>051-056>058-064>065-071>073-077>080-242200-
SOUTHWEST LOWER MICHIGAN

CITY           SKY/WX    TMP DP  RH WIND       PRES   REMARKS
BATTLE CREEK   CLOUDY    39  35  86 NW10      29.80R WCI  32
BENTON HARBOR  CLOUDY    38  34  85 W9        29.83F WCI  31
BIG RAPIDS     CLOUDY    38  36  92 W8        29.78R WCI  32
COLDWATER      CLOUDY    40  37  90 W8        29.80S WCI  34
FREMONT        CLOUDY    39  37  91 W8        29.79R WCI  34
HOLLAND        CLOUDY    40  36  86 NW7       29.82S
GRAND RAPIDS   CLOUDY    40  34  79 W10       29.80R WCI  33
IONIA          CLOUDY    39  34  81 W8        29.79R WCI  34
KALAMAZOO      CLOUDY    40  33  76 NW10      29.81S WCI  33
LUDINGTON      CLOUDY    38  36  91 NW6       29.80R WCI  34
MARSHALL       CLOUDY    39  35  84 W10G16    29.79R WCI  32
MOUNT PLEASANT CLOUDY    41  36  83 NW7       29.76R
MUSKEGON       CLOUDY    39  36  89 NW6       29.82R FOG     WCI  35
SOUTH HAVEN    CLOUDY    38  36  94 W7        29.83S WCI  32
$$
MIZ016>042-242200-
NORTHERN LOWER MICHIGAN

CITY           SKY/WX    TMP DP  RH WIND       PRES   REMARKS
ALPENA         PTSUNNY   37  33  85 CALM      29.74S
BEAVER ISLAND  CLOUDY    35  35 100 N3        29.78R FOG
BELLAIRE       CLOUDY    35  35 100 CALM      29.77R
CADILLAC       CLOUDY    35  34  96 W6        29.74R FOG     WCI  30
CHARLEVOIX     CLOUDY    34  34 100 N5        29.79S FOG     WCI  30
FRANKFORT      CLOUDY    37  36  94 NW6       29.79R WCI  33
GAYLORD        CLOUDY    35  32  88 VRB5      29.72S FOG     WCI  31
GRAYLING       CLOUDY    36  34  94 NW5       29.75R FOG     WCI  32
HARBOR SPRINGS CLOUDY    35  34  96 CALM      29.76R FOG
HOUGHTON LAKE  CLOUDY    36  34  92 NW9       29.74R WCI  29
MANISTEE       CLOUDY    38  35  89 NW7       29.79R WCI  33
OSCODA         CLOUDY    37  36  94 E5        29.72F WCI  34
PELLSTON       LGT RAIN  35  32  88 N5        29.77R WCI  31
ROGERS CITY    CLOUDY    34  33  96 CALM      29.76R
TRAVERSE CITY  CLOUDY    38  36  92 NW6       29.76R FOG     WCI  33
$$
MIZ007>008-015-242200-
EASTERN UPPER MICHIGAN

CITY           SKY/WX    TMP DP  RH WIND       PRES   REMARKS
KINROSS        CLOUDY    35  33  92 N5        29.75S WCI  31
MACKINAC ISLAN CLOUDY    33  33 100 CALM      29.76R FOG
NEWBERRY       CLOUDY    34  33  96 NW5       29.76R FOG     WCI  30
S. S. MARIE    CLOUDY    36  33  89 NW6       29.74F WCI  31
MUNISING         N/A     35  34  96 NW10      29.78R WCI  27
$$
MIZ004>006-011>014-085-242200-
CENTRAL UPPER MICHIGAN

CITY           SKY/WX    TMP DP  RH WIND       PRES   REMARKS
MANISTIQUE     CLOUDY    36  35  96 NW6       29.77S FOG     WCI  31
ESCANABA       CLOUDY    38  35  89 VRB3      29.79S
SAWYER-GWINN   CLOUDY    34  34 100 N5        29.77S WCI  30
$$
MIZ001>003-009>011-084-242200-
WESTERN UPPER MICHIGAN

CITY           SKY/WX    TMP DP  RH WIND       PRES   REMARKS
IRON MOUNTAIN  CLOUDY    37  31  78 NW7       29.77R WCI  32
HOUGHTON       CLOUDY    35  33  92 NW9       29.78S FOG     WCI  28
COPPER HARBOR    N/A     37  34  89 N9        29.79S WCI  30
IRONWOOD       CLOUDY    33  28  81 NW6       29.82R WCI  28
$$

ABBREVIATIONS USED IN REMARKS
   TC - TEMPERATURE IN CELSIUS
  WCI - WIND CHILL INDEX
   HX - HEAT INDEX
  VSB - VISIBILITY




USA.gov is the U.S. government's official web portal to all federal, state and local government web resources and services.